Sendai Airport Sendai JP
ICAO: RJSS
IATA:
Category: Medium
Scheduled Services:

Elevation: 15 ft
TransAlt. 14000 ft.

Airport Communications:
APP:120.4
ATIS:126.45
DEP:120
GND:121.7
TCA:121.025
TWR:118.7

RJSS Zoom In..

If you have problems with the map follow the link
https://www.worldairports.se/pages/airport.php?
ICAO=RJSS

Runways:

(A) RW 09 length 9843 ft width 148 ft
---- / hdg 91

(B) RW 12 length 3937 ft width 148 ft
---- / hdg 125

(C) RW 27 length 9843 ft width 148 ft
ILS 111.70 / hdg 271

(D) RW 30 length 3937 ft width 148 ft
---- / hdg 305

Location; RJSS
Day. 22 / Time. 12.00 Zulu
* QNH: 1017
* Temperature: 05° c. 41°f.
* Wind from: 260° Speed 03 kn.
Dewpoint: -04° c.
Visibility: 10 km or more.
Clouds: Few 3000 ft.
Clouds: Broken /00 ft.

RJSS 221200Z 26003KT 230V320 9999 FEW030 BKN/// 05/M04 Q1017


Wind From 260°
Speed 03 kn.

 
 
jpsmedia.com for Web Design worldairports.se 2019   terms of use